Location: *
(38.3914°N, 75.0697°W)
Time: 19:14:15
(UTC+00:00)

USA 229 DEB - Pass Details

Date: 17 February 2020
Orbit: 988 x 1224 km, 63.4° (Epoch: 26 March)

Event Time Altitude Azimuth Distance (km) Brightness Sun altitude
Exits shadow 08:58:25 65° 8° (N) 1,293 4.0 -34.0°
Maximum altitude 08:59:23 72° 56° (NE) 1,243 4.0 -33.8°
Drops below altitude 10° 09:07:00 10° 140° (SE) 3,158 6.4 -32.3°
Sets 09:09:48 0° 142° (SE) 4,130 7.1 -31.8°
